The European

gateway to

Central Switzerland

Aviation competences

with a long tradition

Aviation in the country

of the aircraft builders

Base for work and high

priority business flights

METAR

LSZC 191250Z 27009KT 9999 -RA SCT055 OVC065 10/08 Q1017

 

TAF

METEO

NOTAM

B670/21
CRANE 1.7KM 038DEG GEO ARP LSZC, MARKED, LGTD, 465910N0082439E, 43.8M / 143.8FT AGL, 512.2M / 1680.4FT AMSL.
FROM: 26.05.2021, 05:42z
TO: 14.07.2022, 23:59z

DABS

Today
Tomorrow

FLIGHTS

Register
Timetable

Direction West (Pilatus)


Direction West (Pilatus)



Direction East (Brunnen)


Direction East (Brunnen)


Direction Nord (Lucern)


Direction Sud (Engelberg)


Privacy Settings
We use cookies to enhance your experience while using our website. If you are using our Services via a browser you can restrict, block or remove cookies through your web browser settings. We also use content and scripts from third parties that may use tracking technologies. You can selectively provide your consent below to allow such third party embeds. For complete information about the cookies we use, data we collect and how we process them, please check our Privacy Policy
Youtube
Consent to display content from Youtube
Vimeo
Consent to display content from Vimeo
Google Maps
Consent to display content from Google